Regional Weather Roundup
Issued by NWS Jackson, KY

Home | Current Version | Previous Version | Text Only | Print | Product List | Glossary On
Versions: 1 2 3 4 5 6 7 8 9 10 11 12 13 14 15 16 17 18 19 20 21 22 23 24 25 26 27
000
ASUS43 KJKL 172010
RWRJKL

EAST KENTUCKY HOURLY WEATHER ROUNDUP
NATIONAL WEATHER SERVICE JACKSON KY
300 PM EST TUE JAN 17 2017

NOTE: "FAIR" INDICATES FEW OR NO CLOUDS BELOW 12,000 FEET WITH
NO SIGNIFICANT WEATHER AND/OR OBSTRUCTIONS TO VISIBILITY.

* THESE REPORTS ARE NOT UNDER NWS QUALITY CONTROL AND MAY NOT
  REPORT WEATHER SUCH AS PRECIPITATION AND FOG.

KYZ079-080-083-085-087-088-110-112-115-119-120-172100
...EASTERN KENTUCKY...

CITY           SKY/WX    TMP DP  RH WIND       PRES   REMARKS
JACKSON        CLOUDY    61  57  87 MISG      29.96F
LONDON         LGT RAIN  59  56  89 SW10      29.97F FOG
SOMERSET*      CLOUDY    61  61 100 SW5       29.98F
MONTICELLO*    CLOUDY    62  60  93 W16       30.00F
WILLIAMSBURG*  CLOUDY    59  59 100 SW8       29.99F
MIDDLESBORO*   RAIN      60  58  91 SW10      30.02F
HARLAN APT*    CLOUDY    59  55  88 W3        30.01F
PIKE CO APT*   CLOUDY    62  57  86 SW5       29.97F
BIG SANDY APT* CLOUDY    63  57  82 SW8       29.96F
MOREHEAD APT*  CLOUDY    64  55  72 SW17G31   29.92S
ASHLAND*       CLOUDY    66  59  77 W12       29.86F
$$

KYZ035-036-041-042-044-050-067-078-099-172100
...CENTRAL KENTUCKY...

CITY           SKY/WX    TMP DP  RH WIND       PRES   REMARKS
MT STERLING*   CLOUDY    64  55  72 W17G23    29.92F
FLEMING/MASON* CLOUDY    62  56  79 W17       29.90S
DANVILLE*      PTSUNNY   63  54  72 SW7       29.94F
LEXINGTON      CLOUDY    63  50  62 SW16      29.92S
FRANKFORT      CLOUDY    63  50  62 W10G18    29.91S
LOUISVILLE     CLOUDY    58  47  66 W21G26    29.94S
LEBANON*       MOCLDY    63  54  72 S14G23    29.94F
GLASGOW*       CLOUDY    60  53  76 SW15G22   29.98S
BOWLING GREEN  MOSUNNY   62  48  60 SW14G24   29.98F
$$

KYZ091>093-OHZ055-061-077-WVZ005-015-034-035-042-172100
...SOUTHERN OHIO/WEST VIRGINIA...

CITY           SKY/WX    TMP DP  RH WIND       PRES   REMARKS
COVINGTON      CLOUDY    57  48  72 W14G23    29.90R
COLUMBUS       PTSUNNY   60  49  66 W15       29.86R
DAYTON         PTSUNNY   53  46  77 W21       29.88R
WILMINGTON     CLOUDY    57  48  72 W22G31    29.87S
HUNTINGTON     CLOUDY    67  56  67 SW13G20   29.90F
CHARLESTON     CLOUDY    65  55  70 SW9       29.91F
BECKLEY        CLOUDY    57  52  83 SW16G26   29.99F
BLUEFIELD      CLOUDY    55  51  86 W13G25    30.03S
LOGAN CO APT*  CLOUDY    59  57  94 CALM      29.97S FOG
$$

VAZ002-007-008-TNZ017-027-036-066-071-172100
...SOUTHWEST VIRGINIA/EAST TENNESSEE...

CITY           SKY/WX    TMP DP  RH WIND       PRES   REMARKS
WISE*          LGT RAIN  57  57 100 SW16G25   30.03F
JONESVILLE*    LGT RAIN  59  57  94 SW10      30.05F
ABINGDON*      DRIZZLE   58  56  96 W5        30.06F
BRISTOL        CLOUDY    57  55  93 CALM      30.06F
MORRISTOWN*    CLOUDY    61  59  94 SW7G13    30.04S
SEVIERVILLE*   CLOUDY    61  59  94 NW3       30.03F
KNOXVILLE      CLOUDY    65  57  75 SW20      30.03F
LAFOLLETTE*    CLOUDY    63  59  88 VRB5G12   30.05F
OAK RIDGE      LGT RAIN  60  57  89 W3        30.05S FOG
CROSSVILLE     LGT RAIN  60  58  92 SW8       30.05F
NASHVILLE      CLOUDY    62  54  74 W7        30.01S
$$

...KEY TO REMARKS...
VSB - VISIBILITY IN MILES
WCI - WIND CHILL INDEX
HX  - HEAT INDEX

$$




USA.gov is the U.S. government's official web portal to all federal, state and local government web resources and services.